Time,TemperatureF,DewpointF,PressureIn,WindDirection,WindDirectionDegrees,WindSpeedMPH,WindSpeedGustMPH,Humidity,HourlyPrecipIn,Conditions,Clouds,dailyrainin,SoftwareType,DateUTC
2013-09-30 09:53:00,56.0,40.0,29.95,South,188,3.0,6.0,55,0.00,,,0.00,,2013-09-30 14:53:00,
2013-09-30 10:11:00,58.0,42.0,29.95,SSW,196,3.0,11.0,55,0.00,,,0.00,,2013-09-30 15:11:00,
2013-09-30 10:23:00,59.0,43.0,29.94,South,188,4.0,11.0,56,0.00,,,0.00,,2013-09-30 15:23:00,
2013-09-30 10:45:00,61.0,46.0,29.93,SE,132,5.0,14.0,57,0.00,,,0.00,,2013-09-30 15:45:00,
2013-09-30 10:54:00,62.0,47.0,29.93,SSE,166,6.0,12.0,58,0.00,,,0.00,,2013-09-30 15:54:00,
2013-09-30 11:14:00,63.0,48.0,29.93,SE,142,6.0,13.0,58,0.00,,,0.00,,2013-09-30 16:14:00,
2013-09-30 11:24:00,64.0,49.0,29.93,SSW,211,0.0,12.0,58,0.00,,,0.00,,2013-09-30 16:24:00,
2013-09-30 11:53:00,66.0,49.0,29.93,South,177,5.0,13.0,55,0.00,,,0.00,,2013-09-30 16:53:00,
2013-09-30 12:13:00,66.0,48.0,29.93,SSW,195,6.0,18.0,53,0.00,,,0.00,,2013-09-30 17:13:00,
2013-09-30 12:22:00,67.0,50.0,29.92,South,186,4.0,9.0,55,0.00,,,0.00,,2013-09-30 17:22:00,
2013-09-30 12:53:00,68.0,49.0,29.91,SSE,168,8.0,15.0,51,0.00,,,0.00,,2013-09-30 17:53:00,
2013-09-30 13:12:00,68.0,49.0,29.91,SW,230,8.0,14.0,51,0.00,,,0.00,,2013-09-30 18:12:00,
2013-09-30 13:22:00,69.0,51.0,29.90,South,184,7.0,13.0,53,0.00,,,0.00,,2013-09-30 18:22:00,
2013-09-30 13:53:00,69.0,50.0,29.88,SSW,199,9.0,15.0,50,0.00,,,0.00,,2013-09-30 18:53:00,
2013-09-30 14:12:00,70.0,51.0,29.88,SSE,161,5.0,9.0,51,0.00,,,0.00,,2013-09-30 19:12:00,
2013-09-30 14:22:00,70.0,49.0,29.87,SSE,161,8.0,13.0,48,0.00,,,0.00,,2013-09-30 19:22:00,
2013-09-30 14:53:00,71.0,50.0,29.86,SE,125,6.0,14.0,48,0.00,,,0.00,,2013-09-30 19:53:00,
2013-09-30 15:13:00,70.0,49.0,29.86,SSE,150,8.0,18.0,47,0.00,,,0.00,,2013-09-30 20:13:00,
2013-09-30 15:23:00,70.0,50.0,29.85,SSE,160,6.0,14.0,50,0.00,,,0.00,,2013-09-30 20:23:00,
2013-09-30 15:53:00,71.0,50.0,29.84,SSW,210,9.0,14.0,47,0.00,,,0.00,,2013-09-30 20:53:00,
2013-09-30 16:11:00,71.0,49.0,29.84,SW,220,10.0,15.0,46,0.00,,,0.00,,2013-09-30 21:11:00,
2013-09-30 16:22:00,71.0,50.0,29.83,South,191,8.0,14.0,47,0.00,,,0.00,,2013-09-30 21:22:00,
2013-09-30 16:54:00,71.0,49.0,29.83,South,186,7.0,14.0,46,0.00,,,0.00,,2013-09-30 21:54:00,
2013-09-30 17:23:00,71.0,49.0,29.81,South,185,6.0,15.0,46,0.00,,,0.00,,2013-09-30 22:23:00,
2013-09-30 17:43:00,71.0,50.0,29.81,SSW,192,4.0,15.0,48,0.00,,,0.00,,2013-09-30 22:43:00,
2013-09-30 17:54:00,70.0,50.0,29.81,South,179,5.0,10.0,49,0.00,,,0.00,,2013-09-30 22:54:00,
2013-09-30 18:12:00,69.0,50.0,29.82,SE,144,0.0,8.0,51,0.00,,,0.00,,2013-09-30 23:12:00,
2013-09-30 18:23:00,68.0,49.0,29.82,SSW,197,1.0,7.0,51,0.00,,,0.00,,2013-09-30 23:23:00,
2013-09-30 18:54:00,66.0,49.0,29.82,SSW,200,0.0,4.0,55,0.00,,,0.00,,2013-09-30 23:54:00,
2013-09-30 19:12:00,64.0,48.0,29.81,SSW,200,0.0,0.0,57,0.00,,,0.00,,2013-10-01 00:12:00,
2013-09-30 19:22:00,63.0,48.0,29.81,SSW,200,0.0,0.0,59,0.00,,,0.00,,2013-10-01 00:22:00,
2013-09-30 19:43:00,62.0,48.0,29.80,SSW,199,0.0,1.0,61,0.00,,,0.00,,2013-10-01 00:43:00,
2013-09-30 19:52:00,61.0,47.0,29.81,South,191,1.0,4.0,61,0.00,,,0.00,,2013-10-01 00:52:00,
2013-09-30 20:12:00,61.0,47.0,29.81,South,190,0.0,2.0,61,0.00,,,0.00,,2013-10-01 01:12:00,
2013-09-30 20:21:00,61.0,48.0,29.81,South,191,0.0,4.0,62,0.00,,,0.00,,2013-10-01 01:21:00,
2013-09-30 20:42:00,60.0,47.0,29.81,South,190,0.0,2.0,62,0.00,,,0.00,,2013-10-01 01:42:00,
2013-09-30 20:52:00,60.0,47.0,29.81,SSE,165,0.0,2.0,62,0.00,,,0.00,,2013-10-01 01:52:00,
2013-09-30 21:12:00,59.0,46.0,29.81,South,170,0.0,2.0,62,0.00,,,0.00,,2013-10-01 02:12:00,
2013-09-30 21:22:00,59.0,46.0,29.81,South,187,0.0,2.0,62,0.00,,,0.00,,2013-10-01 02:22:00,
2013-09-30 21:52:00,58.0,45.0,29.80,South,188,0.0,1.0,62,0.00,,,0.00,,2013-10-01 02:52:00,
2013-09-30 22:22:00,57.0,43.0,29.81,South,184,0.0,2.0,60,0.00,,,0.00,,2013-10-01 03:22:00,
2013-09-30 22:55:00,57.0,43.0,29.82,SSW,205,0.0,5.0,59,0.00,,,0.00,,2013-10-01 03:55:00,
2013-09-30 23:14:00,57.0,44.0,29.82,South,180,0.0,5.0,61,0.00,,,0.00,,2013-10-01 04:14:00,
2013-09-30 23:24:00,57.0,43.0,29.82,SSE,153,0.0,2.0,59,0.00,,,0.00,,2013-10-01 04:24:00,